Tracking 29892 objects as of 21-Nov-2024
HD Live streaming from Space Station
objects crossing your sky now

STARLINK-3840

Track STARLINK-3840 now!
10-day predictions
STARLINK-3840 is classified as:


NORAD ID: 52466
Int'l Code: 2022-049R
Perigee: 481.4 km
Apogee: 484.0 km
Inclination: 53.2 °
Period: 94.1 minutes
Semi major axis: 6853 km
RCS: Unknown
Launch date: May 6, 2022
Source: United States (US)
Launch site: AIR FORCE EASTERN TEST RANGE (AFETR)
Your satellite tracking list
Your tracking list is empty




NASA's NSSDC Master Catalog

Two Line Element Set (TLE):
1 52466U 22049R   24325.55000704  .00050644  00000-0  17167-2 0  9990
2 52466  53.1994  18.1174 0001866 286.2133  73.8663 15.30081223140805
Source of the keplerian elements: AFSPC